Location: Namasale
(1.5000°N, 32.6167°E)
Time: 16:17:31
(UTC+00:00)

Cosmos 292 Rocket - Pass Details

Date: 09 April 2020
Orbit: 673 x 695 km, 74.0° (Epoch: 27 May)

Event Time Altitude Azimuth Distance (km) Brightness Sun altitude
Rises 17:22:15 0° 347° (NNW) 3,045 7.4 -22.4°
Reaches altitude 10° 17:24:33 10° 346° (NNW) 2,134 6.6 -22.9°
Maximum altitude 17:29:22 85° 258° (WSW) 699 3.7 -24.1°
Enters shadow 17:30:41 49° 174° (S) 895 4.2 -24.4°
